Weather History for Leeds And Bradford, United Kingdom

Change the Weather History Date:

Friday, February 14, 2014

  Actual Average Record
Temperature  
Mean Temperature 39 °F -  
Max Temperature 46 °F 43 °F 57 °F (1998)
Min Temperature 33 °F 34 °F 28 °F (2001)
Degree Days  
Heating Degree Days 26    
Moisture  
Dew Point 36 °F    
Average Humidity 91    
Maximum Humidity 100    
Minimum Humidity 66    
Precipitation  
Precipitation 0.24 in - - ()
Sea Level Pressure  
Sea Level Pressure 29.00 in    
Wind  
Wind Speed 14 mph ()    
Max Wind Speed 38 mph    
Max Gust Speed 38 mph    
Visibility 5.5 miles    
Events Fog , Rain    
Averages and records for this station are not official NWS values.
T = Trace of Precipitation, MM = Missing Value Source: Averaged Metar Reports

Daily Weather History Graph

Daily Weather History Graph

Search for Another Location

Airport:

Trip Planner

Search our weather history database for the weather conditions in past years. The results will help you decide how hot, cold, wet, or windy it might be!

Date:

Astronomy

Feb. 14, 2014 Rise Set
Actual Time 7:28 AM GMT 5:13 PM GMT
Civil Twilight 6:51 AM GMT 5:50 PM GMT
Nautical Twilight 6:10 AM GMT 6:32 PM GMT
Astronomical Twilight 5:29 AM GMT 7:12 PM GMT
Moon 5:10 PM GMT (2/14) 6:44 AM GMT (2/14)
Length of Visible Light 10h 58m
Length of Day
9h 45m
Full, 100% of the Moon is Illuminated
Feb 14
Full
Feb 14
Full
Feb 22
Last Quarter
Mar 1
New
Mar 8
First Quarter

Hourly Weather History & Observations

Time (GMT) Temp. Windchill Dew Point Humidity Pressure Visibility Wind Dir Wind Speed Gust Speed Precip Events Conditions
12:00 AM 38 °F - 31 °F 66%  in - WSW 18.4 mph - -  
12:20 AM 37.4 °F 29.3 °F 32.0 °F 81% 29.27 in 6.2 mi SW 12.7 mph 24.2 mph N/A   Scattered Clouds
12:50 AM 39.2 °F 33.6 °F 32.0 °F 75% 29.30 in 6.2 mi SW 8.1 mph 19.6 mph N/A   Scattered Clouds
1:00 AM 38 °F - 31 °F 68%  in - WSW 20.7 mph - -  
1:20 AM 37.4 °F 28.2 °F 33.8 °F 87% 29.30 in 6.2 mi WSW 16.1 mph - N/A   Scattered Clouds
1:50 AM 37.4 °F 28.9 °F 33.8 °F 87% 29.30 in 6.2 mi WSW 13.8 mph - N/A Rain Light Rain
2:00 AM 37 °F - 32 °F 76%  in - WSW 19.6 mph - -  
2:20 AM 37.4 °F 29.8 °F 33.8 °F 87% 29.30 in 6.2 mi SW 11.5 mph - N/A   Scattered Clouds
2:50 AM 37.4 °F 29.3 °F 33.8 °F 87% 29.30 in 6.2 mi WSW 12.7 mph - N/A   Scattered Clouds
3:00 AM 37 °F - 33 °F 80%  in - SW 13.8 mph - -  
3:20 AM 35.6 °F 29.9 °F 32.0 °F 87% 29.33 in 6.2 mi South 6.9 mph - N/A   Partly Cloudy
3:50 AM 35.6 °F 29.9 °F 33.8 °F 93% 29.30 in 6.2 mi SW 6.9 mph - N/A   Partly Cloudy
4:00 AM 36 °F - 33 °F 85%  in - WSW 20.7 mph - -  
4:20 AM 35.6 °F 28.6 °F 33.8 °F 93% 29.30 in 6.2 mi WSW 9.2 mph - N/A   Partly Cloudy
4:50 AM 35.6 °F 29.2 °F 33.8 °F 93% 29.33 in 6.2 mi SW 8.1 mph - N/A   Partly Cloudy
5:00 AM 37 °F - 33 °F 82%  in - SSW 12.7 mph - -  
5:20 AM 33.8 °F 29.6 °F 32.0 °F 93% 29.33 in 6.2 mi South 4.6 mph - N/A   Scattered Clouds
5:50 AM 33.8 °F 28.6 °F 33.8 °F 100% 29.33 in 6.2 mi ESE 5.8 mph - N/A   Scattered Clouds
6:00 AM 37 °F - 34 °F 83%  in - SSW 10.4 mph - -  
6:20 AM 33.8 °F 28.6 °F 33.8 °F 100% 29.33 in 6.2 mi SSE 5.8 mph - N/A   Scattered Clouds
6:50 AM 35.6 °F 30.7 °F 33.8 °F 93% 29.33 in 6.2 mi South 5.8 mph - N/A   Scattered Clouds
7:00 AM 35 °F - 33 °F 87%  in - South 11.5 mph - -  
7:20 AM 35.6 °F 29.9 °F 33.8 °F 93% 29.33 in 6.2 mi SSE 6.9 mph - N/A   Partly Cloudy
7:50 AM 35.6 °F 29.9 °F 33.8 °F 93% 29.33 in 6.2 mi South 6.9 mph - N/A   Partly Cloudy
8:00 AM 35 °F - 32 °F 85%  in - South 8.1 mph - -  
8:20 AM 35.6 °F 29.2 °F 33.8 °F 93% 29.33 in 6.2 mi SSE 8.1 mph - N/A   Partly Cloudy
8:50 AM 35.6 °F 29.9 °F 33.8 °F 93% 29.30 in 6.2 mi SSE 6.9 mph - N/A   Partly Cloudy
9:00 AM 35 °F - 33 °F 87%  in - SE 8.1 mph - -  
9:20 AM 35.6 °F 28.6 °F 33.8 °F 93% 29.27 in 6.2 mi SSE 9.2 mph - N/A   Partly Cloudy
9:50 AM 35.6 °F 29.2 °F 33.8 °F 93% 29.27 in 6.2 mi SE 8.1 mph - N/A   Partly Cloudy
10:00 AM 36 °F - 34 °F 87%  in - ESE 11.5 mph - -  
10:20 AM 37.4 °F 30.8 °F 33.8 °F 87% 29.24 in - SSE 9.2 mph - N/A   Clear
10:50 AM 37.4 °F 29.8 °F 35.6 °F 93% 29.24 in 6.2 mi ESE 11.5 mph - N/A   Partly Cloudy
11:00 AM 36 °F - 34 °F 88%  in - SSE 24.2 mph - -  
11:20 AM 37.4 °F 28.5 °F 35.6 °F 93% 29.21 in 6.2 mi SE 15.0 mph - N/A   Scattered Clouds
11:50 AM 37.4 °F 28.5 °F 35.6 °F 93% 29.18 in 6.2 mi SE 15.0 mph - N/A   Scattered Clouds
12:00 PM 37 °F - 34 °F 86%  in - SE 28.8 mph - -  
12:20 PM 37.4 °F 27.8 °F 35.6 °F 93% 29.15 in 6.2 mi SE 17.3 mph - N/A Rain Light Rain
12:50 PM 37.4 °F 26.4 °F 35.6 °F 93% 29.09 in 4.3 mi ESE 23.0 mph 36.8 mph N/A Rain Light Rain
1:00 PM 36 °F - 35 °F 95%  in - SE 36.8 mph - -  
1:20 PM 37.4 °F 26.1 °F 35.6 °F 93% 29.03 in 6.2 mi ESE 24.2 mph 35.7 mph N/A Rain Light Rain
1:50 PM 37.4 °F 25.6 °F 37.4 °F 100% 28.97 in 6.2 mi ESE 26.5 mph 38.0 mph N/A Rain Light Rain
2:00 PM 36 °F - 36 °F 99%  in - SE 38.0 mph - -  
2:20 PM 37.4 °F 26.1 °F 35.6 °F 93% 28.94 in 6.2 mi SE 24.2 mph - N/A Rain Light Rain
2:50 PM 35.6 °F 23.2 °F 35.6 °F 100% 28.88 in 5.0 mi SE 26.5 mph 38.0 mph N/A Rain Light Rain Showers
3:00 PM 36 °F - 36 °F 98%  in - SE 35.7 mph - -  
3:20 PM 37.4 °F 25.6 °F 37.4 °F 100% 28.85 in 5.6 mi SE 26.5 mph - N/A Rain Light Rain Showers
3:50 PM 37.4 °F 26.1 °F 37.4 °F 100% 28.82 in 2.8 mi SE 24.2 mph 35.7 mph N/A Rain Light Rain Showers
4:00 PM 37 °F - 37 °F 99%  in - SE 33.4 mph - -  
4:20 PM 37.4 °F 26.4 °F 37.4 °F 100% 28.77 in 2.8 mi SE 23.0 mph - N/A Rain Light Rain
4:50 PM 37.4 °F 28.2 °F 37.4 °F 100% 28.77 in 1.7 mi SSE 16.1 mph - N/A Rain Light Rain
5:00 PM 39 °F - 39 °F 100%  in - SSE 24.2 mph - -  
5:20 PM 39.2 °F 30.2 °F 39.2 °F 100% 28.71 in 0.4 mi SE 17.3 mph - N/A Fog , Rain Light Rain
5:50 PM 41.0 °F 33.1 °F 41.0 °F 100% 28.68 in 0.2 mi SE 15.0 mph - N/A Fog , Rain Light Rain
6:00 PM 43 °F - 43 °F 100%  in - South 16.1 mph - -  
6:20 PM 41.0 °F 33.9 °F 41.0 °F 100% 28.65 in 0.9 mi SE 12.7 mph - N/A Rain Light Rain
6:50 PM 42.8 °F 35.4 °F 42.8 °F 100% 28.62 in 6.2 mi SSE 15.0 mph - N/A Rain Light Rain
7:20 PM 44.6 °F 37.2 °F 42.8 °F 93% 28.62 in 6.2 mi SSE 17.3 mph - N/A Rain Light Rain
7:50 PM 44.6 °F 37.4 °F 41.0 °F 87% 28.59 in 6.2 mi South 16.1 mph 28.8 mph N/A   Partly Cloudy
8:00 PM 45 °F - 41 °F 79%  in - South 31.1 mph - -  
8:20 PM 44.6 °F 37.4 °F 41.0 °F 87% 28.56 in 6.2 mi South 16.1 mph - N/A   Scattered Clouds
8:50 PM 44.6 °F 37.8 °F 41.0 °F 87% 28.56 in 6.2 mi SSE 15.0 mph - N/A Rain Light Rain
9:00 PM 44 °F - 42 °F 90%  in - South 28.8 mph - -  
9:20 PM 44.6 °F 37.4 °F 42.8 °F 93% 28.50 in 6.2 mi SSE 16.1 mph - N/A Rain Light Rain
9:50 PM 44.6 °F 37.2 °F 42.8 °F 93% 28.47 in 5.0 mi SSE 17.3 mph - N/A Rain Light Rain
10:00 PM 44 °F - 42 °F 91%  in - South 32.2 mph - -  
10:20 PM 44.6 °F 36.9 °F 42.8 °F 93% 28.47 in 6.2 mi SSE 18.4 mph - N/A Rain Light Rain
10:50 PM 44.6 °F 37.4 °F 42.8 °F 93% 28.44 in 6.2 mi SSE 16.1 mph - N/A Rain Light Rain
11:00 PM 45 °F - 42 °F 86%  in - South 23.0 mph - -  
11:20 PM 44.6 °F 37.4 °F 42.8 °F 93% 28.44 in 6.2 mi SSE 16.1 mph - N/A   Scattered Clouds
11:50 PM 46.4 °F 39.0 °F 41.0 °F 81% 28.41 in 6.2 mi South 19.6 mph 31.1 mph N/A Rain Light Rain Showers